Accueil
METAR-TAF:

METAR-TAF

Aéroports :

Ermelo, Afrique du Sud

latitude: 26-29-44S, longitude: 29-58-47E, altitude: 1737 m

Observation

Le bulletin a été fait il y a 18 heures et 35 minutes, à 08:44 UTC
Vent 2 kt de ouest/sud-ouest
Température 17°C
Humidité 36%
Pression 1034 hPa
Visibilité 10 km ou plus
pas de nuages en-dessous de 1500 mètres et pas de cumulonimbus.

METAR: FAEO 290844Z 24002KT CAVOK 17/02 Q1034

Heure: 05:19 (03:19 UTC)


TAF: absent

Observations et prévisions météorologiques de plus de 4000 aéroports (messages METAR et TAF).

Les stations disponibles sont représentées par des disques jaunes et rouges sur la carte.

Passer la souris dessus pour voir le nom de la station.

Cliquer dessus pour voir les observations et prévisions météorologiques.

Pour changer de carte: cliquez sur les boutons verts avec une croix noire pour zoomer, sur le bouton vert avec un tiret pour effectuer un zoom arrière, ou sur les flèches vertes pour les cartes adjacentes.


METAR-TAF: